Weather History for PAFA - November, 2012

Change the Weather History Date:

Sunday, November 11, 2012

  Actual Average Record
Temperature  
Mean Temperature 1 °F 4 °F  
Max Temperature 17 °F 12 °F 38 °F (1981)
Min Temperature -15 °F -4 °F -34 °F (1990)
Degree Days  
Heating Degree Days 64 61  
Month to date heating degree days 710 637  
Since 1 July heating degree days 2995 2896  
Cooling Degree Days 0 0  
Month to date cooling degree days 0 0  
Year to date cooling degree days 34 61  
Moisture  
Dew Point -2 °F    
Average Humidity 79    
Maximum Humidity 88    
Minimum Humidity 67    
Precipitation  
Precipitation T in 0.02 in 0.20 in (1979)
Month to date precipitation 0.29 0.25  
Year to date precipitation 9.43 9.75  
Snow  
Snow T in 0.40 in 4.50 in (1972)
Month to date snowfall 4.2 4.8  
Since 1 July snowfall 11.3 17.4  
Since 1 September snowfall 11.3 17.4  
Snow Depth 7.00 in    
Sea Level Pressure  
Sea Level Pressure 29.88 in    
Wind  
Wind Speed 4 mph (NE)    
Max Wind Speed 7 mph    
Max Gust Speed -    
Visibility 10 miles    
Events Snow    
T = Trace of Precipitation, MM = Missing Value Source: NWS Daily Summary

Daily Weather History Graph

Daily Weather History Graph

Search for Another Location

Airport or City:

Trip Planner

Search our weather history database for the weather conditions in past years. The results will help you decide how hot, cold, wet, or windy it might be!

Date:

Astronomy

Nov. 11, 2012 Rise Set
Actual Time 9:15 AM AKST 3:55 PM AKST
Civil Twilight 8:14 AM AKST 4:55 PM AKST
Nautical Twilight 7:13 AM AKST 5:56 PM AKST
Astronomical Twilight 6:15 AM AKST 6:54 PM AKST
Moon 5:54 AM AKST (11/11) 3:01 PM AKST (11/11)
Length of Visible Light 8h 40m
Length of Day
6h 39m
Waning Crescent, 6% of the Moon is Illuminated
Nov 11
Waning Crescent
Nov 13
New
Nov 20
First Quarter
Nov 28
Full
Dec 6
Last Quarter

Hourly Weather History & Observations

Time (AKST) Temp. Windchill Dew Point Humidity Pressure Visibility Wind Dir Wind Speed Gust Speed Precip Events Conditions
12:53 AM 15.1 °F 9.4 °F 12.0 °F 88% 29.74 in 9.0 mi NE 3.5 mph - N/A Snow Light Snow
1:53 AM 10.9 °F 1.4 °F 8.1 °F 88% 29.75 in 9.0 mi NNE 5.8 mph - N/A Snow Light Snow
3:53 AM 15.1 °F 6.4 °F 10.0 °F 80% 29.76 in 10.0 mi NE 5.8 mph - N/A   Overcast
4:53 AM 10.0 °F 1.8 °F 5.0 °F 80% 29.77 in 10.0 mi NNE 4.6 mph - N/A   Mostly Cloudy
5:53 AM 7.0 °F -3.3 °F 1.9 °F 80% 29.78 in 10.0 mi NNE 5.8 mph - N/A   Scattered Clouds
6:53 AM 8.1 °F -0.5 °F 1.9 °F 76% 29.79 in 10.0 mi NE 4.6 mph - N/A   Scattered Clouds
7:23 AM 8.6 °F -1.3 °F 3.2 °F 79% 29.76 in 10.0 mi NE 5.8 mph - N/A   Mostly Cloudy
7:53 AM 12.0 °F 4.1 °F 5.0 °F 73% 29.81 in 10.0 mi NE 4.6 mph - N/A   Mostly Cloudy
8:53 AM 12.0 °F 4.1 °F 6.1 °F 77% 29.82 in 10.0 mi NE 4.6 mph - N/A   Mostly Cloudy
9:30 AM 10.4 °F -0.4 °F 5.0 °F 79% 29.80 in 10.0 mi NE 6.9 mph - N/A   Mostly Cloudy
9:53 AM 10.0 °F 1.8 °F 3.9 °F 76% 29.84 in 10.0 mi NE 4.6 mph - N/A   Mostly Cloudy
10:53 AM 3.9 °F -5.3 °F -0.9 °F 80% 29.86 in 10.0 mi Variable 4.6 mph - N/A   Scattered Clouds
11:53 AM 5.0 °F -4.1 °F -0.9 °F 76% 29.88 in 10.0 mi NNE 4.6 mph - N/A   Scattered Clouds
12:20 PM 6.8 °F -2.0 °F 1.4 °F 79% 29.85 in 10.0 mi NNE 4.6 mph - N/A   Mostly Cloudy
12:53 PM 6.1 °F -2.8 °F 1.0 °F 80% 29.89 in 10.0 mi NNE 4.6 mph - N/A   Mostly Cloudy
1:09 PM 3.2 °F -4.2 °F -2.2 °F 78% 29.85 in 10.0 mi NNE 3.5 mph - N/A   Scattered Clouds
1:53 PM 3.9 °F - -0.9 °F 80% 29.90 in 10.0 mi Calm Calm - N/A   Scattered Clouds
2:53 PM 1.0 °F - -2.0 °F 87% 29.92 in 10.0 mi Calm Calm - N/A   Scattered Clouds
3:53 PM -0.0 °F - -4.0 °F 83% 29.93 in 10.0 mi Calm Calm - N/A   Partly Cloudy
4:53 PM -2.9 °F - -7.1 °F 82% 29.95 in 10.0 mi Calm Calm - N/A   Scattered Clouds
5:53 PM -6.0 °F - -9.9 °F 83% 29.96 in 10.0 mi Calm Calm - N/A   Scattered Clouds
6:53 PM -9.0 °F - -11.9 °F 87% 29.98 in 10.0 mi Calm Calm - N/A   Scattered Clouds
7:53 PM -8.0 °F - -13.0 °F 79% 30.00 in 10.0 mi Calm Calm - N/A   Partly Cloudy
8:53 PM -11.0 °F - -16.1 °F 78% 30.01 in 10.0 mi Calm Calm - N/A   Partly Cloudy
9:53 PM -11.0 °F - -15.0 °F 83% 30.03 in 10.0 mi Calm Calm - N/A   Partly Cloudy
10:53 PM -15.0 °F - -18.9 °F 82% 30.04 in 10.0 mi Calm Calm - N/A   Partly Cloudy
11:53 PM -13.0 °F - -18.0 °F 78% 30.06 in 10.0 mi Calm Calm - N/A   Partly Cloudy